KUIPER-00482

导读

KUIPER-00482(NORAD编号68877)是亚马逊柯伊伯计划(Project Kuiper)卫星互联网星座的一员,该星座旨在建设近地轨道低轨宽带通信系统,实现全球高速互联网覆盖。它于2025年6月23日由联合发射联盟(ULA)阿特拉斯V火箭从佛罗里达州卡纳维拉尔角发射,属于该火箭第二次批量发射柯伊伯卫星任务的载荷,最终进入近地轨道运行,为星座组网推进提供支持,助力实现低延迟、低成本的全球宽带服务目标。

Basic Information
目录编号:
68877
目录名称:
KUIPER-00482
国际标识:
2026-095P
轨道中心:
EARTH
卫星名称:
KUIPER-00482
卫星全名:
KUIPER-00482
卫星状态:
在轨 (已飞行130 天)
发射日期:
2026-04-28 UTC
国别 :
美国 (US)
星等 :
--
Orbit Information
数据来源 国际轨道数据
星历时间: 2026-09-05T07:54:51+0800
10小时前
查看轨道信息
半长轴: 7007.691km
偏心率: 0.0000931
轨道倾角: 51.900°
近地点辐角 336.468°
升交点赤经 247.747°
平近点角 23.624°
近地点: 628.901km
远地点: 630.207km
周期: 97.302分钟
每日圈数: 14.799272
Detailed Information
使用方式:
暂无
2D Orbit Map
3D Orbit Map
Orbit Altitude Analysis Chart
Orbit Inclination Analysis Chart
Orbit Comprehensive Analysis Chart
View Comprehensive Chart
Conjunction Data List
Event ID Objects TCA Miss Dist (km) Collision Risk Probability Collision Risk Index (CRI) Action
CDM_260906-015104-071806-887724
2026-09-06T
01:51:08+0000
2.528 km
极远距离
1.704228E-6 低风险 0.4
CDM_260830-154406-157106-887721
2026-08-30T
15:44:59+0000
2.972 km
极远距离
8.452882E-7 极低风险 0.34
CDM_260906-032506-088306-887721
2026-09-06T
03:25:57+0000
2.634 km
极远距离
8.450286E-7 极低风险 0.34